Location: Caltech
(34.1382°N, 118.1253°W)
Time: 10:50:25
(UTC-07:00)

Cosmos 1758 Rocket - Visible Passes

Search period start: 25 June 2016 00:00
Search period end: 05 July 2016 00:00
Orbit: 602 x 637 km, 82.5° (Epoch: 23 June)

Date Brightness Start Highest point End Pass type
(mag) Time Alt. Az. Time Alt. Az. Time Alt. Az.
25 Jun 6.7 04:58:44 10° NE 05:01:20 15° ENE 05:03:57 10° ESE visible
29 Jun 6.5 04:30:43 10° NE 04:33:34 16° ENE 04:36:24 10° ESE visible
30 Jun 5.6 04:47:15 10° NNE 04:51:14 31° ENE 04:55:13 10° SE visible
01 Jul 4.2 05:04:23 10° N 05:08:48 63° E 05:13:14 10° SSE visible
03 Jul 6.4 04:02:44 10° NNE 04:05:47 18° ENE 04:08:50 10° ESE visible
04 Jul 5.3 04:19:22 10° NNE 04:23:27 34° E 04:27:31 10° SE visible
